Location: Condor
(52.3263°N, 114.5541°W)
Time: 21:24:00
(UTC+00:00)

Oscar 19 - Pass Details

Date: 11 December 2023
Orbit: 771 x 789 km, 98.9° (Epoch: 04 March)

Event Time Altitude Azimuth Distance (km) Brightness Sun altitude
Rises 13:43:17 0° 10° (N) 3,278 13.8 -16.3°
Reaches altitude 10° 13:45:47 10° 1° (N) 2,349 13.0 -15.9°
Maximum altitude 13:50:21 33° 299° (WNW) 1,307 11.3 -15.2°
Drops below altitude 10° 13:54:56 10° 237° (WSW) 2,345 12.8 -14.6°
Sets 13:57:26 0° 228° (SW) 3,272 13.6 -14.2°
